Home > Weather > Linares > Past weeks

Flag for Spain Past Weather in Linares, Spain — Yesterday and Last 2 Weeks

Now
77 °F

Warm.


Feels Like: 78 °F
Forecast: 69 / 100 °F
Wind: 1 mph from North

Location: Granada / Aeropuerto

Current Time: Jul 25, 2016 at 12:34:56 AM

Latest Report: Jul 25, 2016 at 12:00 AM


Visibility: N/A

Pressure: 30.09 "Hg

Humidity: 44%

Dew Point: 54 °F

Location of LinaresLocation

Past Weather in Linares — Graph

°F

Linares Temperature Yesterday

Maximum temperature yesterday: 97 °F (at 4:00 PM)
Minimum temperature yesterday: 68 °F (at 6:30 AM)
Average temperature yesterday: 82 °F

High & Low Weather Summary for the Past Weeks

 TemperatureHumidityPressure
High104 °F (Jul 10, 6:00 PM)88% (Jul 14, 7:30 AM)30.18 "Hg (Jul 14, 7:30 AM)
Low61 °F (Jul 23, 7:00 AM)11% (Jul 13, 8:00 PM)29.95 "Hg (Jul 10, 6:00 PM)
Average83 °F40%30.06 "Hg
* Reported Jul 9 11:00 PM — Jul 24 11:30 PM, Linares, Weather by CustomWeather, © 2016

Note: Actual official high and low records may vary slightly from our data, if they occured in-between our weather recording intervals... More about our weather records

Advertising

Linares Weather History for the Previous 24 Hours

Scroll right to see more
 ConditionsComfort  
Time TempWeatherWind HumidityBarometerVisibility
11:30 PM
Sun, Jul 24
79 °FWarm.1 mph45%30.09 "HgN/A
11:00 PM82 °FClear.No wind35%30.09 "Hg10 mi
10:30 PM81 °FPassing clouds.2 mph45%30.09 "HgN/A
10:00 PM84 °FPassing clouds.1 mph35%30.07 "HgN/A
9:30 PM86 °FPassing clouds.3 mph29%30.07 "HgN/A
9:00 PM88 °FPassing clouds.7 mph29%30.04 "HgN/A
8:30 PM90 °FPassing clouds.10 mph27%30.04 "HgN/A
8:00 PM91 °FPassing clouds.14 mph28%30.01 "HgN/A
7:30 PM93 °FPassing clouds.16 mph28%30.01 "HgN/A
7:00 PM95 °FPassing clouds.15 mph26%30.01 "HgN/A
6:30 PM95 °FPassing clouds.14 mph26%30.01 "HgN/A
6:00 PM97 °FPassing clouds.13 mph25%30.01 "HgN/A
5:30 PM97 °FPassing clouds.7 mph22%30.01 "HgN/A
5:00 PM97 °FPassing clouds.9 mph19%30.04 "HgN/A
4:30 PM97 °FPassing clouds.8 mph19%30.04 "HgN/A
4:00 PM97 °FPassing clouds.8 mph20%30.04 "HgN/A
3:30 PM95 °FPassing clouds.8 mph20%30.04 "HgN/A
3:00 PM95 °FPassing clouds.6 mph20%30.07 "HgN/A
2:30 PM95 °FPassing clouds.9 mph20%30.07 "HgN/A
2:00 PM93 °FPassing clouds.9 mph21%30.07 "HgN/A
1:30 PM91 °FPassing clouds.13 mph24%30.09 "HgN/A
1:00 PM90 °FPassing clouds.14 mph26%30.09 "HgN/A
12:30 PM88 °FPassing clouds.9 mph33%30.09 "HgN/A
12:00 PM84 °FPassing clouds.7 mph40%30.09 "HgN/A
11:30 AM82 °FPassing clouds.5 mph45%30.09 "HgN/A
11:00 AM81 °FPassing clouds.5 mph48%30.09 "HgN/A
10:30 AM79 °FPassing clouds.6 mph54%30.09 "HgN/A
10:00 AM77 °FPassing clouds.3 mph57%30.12 "HgN/A
9:30 AM75 °FPassing clouds.3 mph69%30.12 "HgN/A
9:00 AM73 °FSunny.2 mph69%30.12 "Hg10 mi
8:30 AM70 °FSunny.No wind83%30.09 "Hg10 mi
8:00 AM68 °FClear.1 mph83%30.09 "Hg10 mi
7:30 AM68 °FClear.2 mph83%30.09 "Hg10 mi
7:00 AM68 °FClear.1 mph83%30.09 "Hg10 mi
6:30 AM68 °FClear.No wind83%30.09 "Hg10 mi
6:00 AM70 °FClear.No wind83%30.09 "Hg10 mi
5:30 AM70 °FMild.No wind83%30.09 "Hg6 mi
5:00 AM70 °FMild.3 mph83%30.09 "Hg5 mi
4:30 AM70 °FMild.2 mph83%30.09 "Hg5 mi
4:00 AM72 °FMild.1 mph78%30.09 "Hg6 mi
3:30 AM72 °FMild.5 mph78%30.09 "Hg6 mi
3:00 AM73 °FMild.7 mph78%30.09 "Hg6 mi
2:30 AM73 °FMild.8 mph78%30.09 "Hg6 mi
2:00 AM75 °FMild.12 mph69%30.09 "HgN/A
1:30 AM75 °FMild.2 mph69%30.09 "HgN/A
1:00 AM75 °FMild.1 mph61%30.09 "HgN/A
12:30 AM77 °FWarm.2 mph54%30.09 "HgN/A
12:00 AM77 °FWarm.10 mph57%30.09 "HgN/A
Weather by CustomWeather, © 2016

See weather overviewHow to use our weather pages